| time (UTC) | temp C | wind direction | speed KPH | gust KPH | rain 1hr cm | rain 24hr cm | rain mn cm | humidity % | barometer mb |
| 20260903180710 | 14 | 126 | 0.0 | 0.0 | 0.00 | 0.56 | 0.56 | 69 | 1009.4 |
| 20260903180204 | 15 | 178 | 3.2 | 3.2 | 0.00 | 0.56 | 0.56 | 67 | 1009.5 |
| 20260903175703 | 14 | 138 | 0.0 | 0.0 | 0.00 | 0.56 | 0.56 | 69 | 1009.2 |
| 20260903175202 | 14 | 133 | 0.0 | 0.0 | 0.00 | 0.56 | 0.56 | 71 | 1009.4 |
| 20260903174657 | 13 | 128 | 0.0 | 0.0 | 0.00 | 0.56 | 0.56 | 71 | 1009.4 |
| 20260903174151 | 13 | 120 | 1.6 | 1.6 | 0.00 | 0.56 | 0.56 | 73 | 1009.3 |
| 20260903173647 | 13 | 110 | 1.6 | 1.6 | 0.00 | 0.56 | 0.56 | 72 | 1009.3 |
| 20260903173143 | 14 | 88 | 1.6 | 1.6 | 0.00 | 0.56 | 0.56 | 72 | 1009.3 |
| 20260903172638 | 14 | 143 | 0.0 | 0.0 | 0.00 | 0.56 | 0.56 | 71 | 1009.4 |
| 20260903172133 | 15 | 312 | 6.4 | 6.4 | 0.00 | 0.56 | 0.56 | 72 | 1009.3 |
| 20260903171632 | 15 | 140 | 3.2 | 3.2 | 0.00 | 0.56 | 0.56 | 73 | 1009.3 |
| 20260903171129 | 15 | 28 | 4.8 | 4.8 | 0.00 | 0.56 | 0.56 | 70 | 1009.4 |
| 20260903170627 | 15 | 126 | 0.0 | 0.0 | 0.00 | 0.56 | 0.56 | 70 | 1009.6 |
| 20260903170123 | 14 | 138 | 0.0 | 0.0 | 0.00 | 0.56 | 0.56 | 73 | 1009.5 |
| 20260903165621 | 14 | 121 | 0.0 | 0.0 | 0.00 | 0.56 | 0.56 | 73 | 1009.5 |
| 20260903165116 | 14 | 187 | 3.2 | 3.2 | 0.00 | 0.56 | 0.56 | 73 | 1009.6 |
| 20260903164611 | 13 | 122 | 0.0 | 0.0 | 0.00 | 0.56 | 0.56 | 76 | 1009.4 |
| 20260903164106 | 13 | 89 | 3.2 | 3.2 | 0.00 | 0.56 | 0.56 | 77 | 1009.5 |
| 20260903163601 | 13 | 184 | 0.0 | 0.0 | 0.00 | 0.56 | 0.56 | 76 | 1009.7 |
| 20260903163057 | 13 | 84 | 1.6 | 1.6 | 0.00 | 0.56 | 0.56 | 76 | 1009.5 |
| 20260903162553 | 15 | 125 | 0.0 | 0.0 | 0.00 | 0.56 | 0.56 | 73 | 1009.5 |
| 20260903162049 | 14 | 126 | 1.6 | 1.6 | 0.00 | 0.56 | 0.56 | 71 | 1009.8 |
| 20260903161544 | 14 | 127 | 0.0 | 0.0 | 0.00 | 0.56 | 0.56 | 77 | 1009.5 |
| 20260903161040 | 14 | 142 | 0.0 | 0.0 | 0.00 | 0.56 | 0.56 | 79 | 1009.7 |
| 20260903160538 | 13 | 150 | 0.0 | 1.6 | 0.00 | 0.56 | 0.56 | 80 | 1009.4 |
| 20260903160033 | 13 | 109 | 0.0 | 0.0 | 0.00 | 0.56 | 0.56 | 81 | 1009.8 |
| 20260903155532 | 13 | 89 | 4.8 | 4.8 | 0.00 | 0.56 | 0.56 | 82 | 1009.6 |
| 20260903155028 | 12 | 140 | 0.0 | 0.0 | 0.00 | 0.56 | 0.56 | 89 | 1009.8 |
| 20260903154524 | 11 | 97 | 1.6 | 3.2 | 0.00 | 0.56 | 0.56 | 94 | 1009.6 |
| 20260903154020 | 11 | 90 | 3.2 | 4.8 | 0.00 | 0.56 | 0.56 | 98 | 1009.5 |
| 20260903153515 | 11 | 146 | 0.0 | 0.0 | 0.00 | 0.56 | 0.56 | 99 | 1009.9 |
| 20260903153011 | 11 | 147 | 0.0 | 0.0 | 0.00 | 0.56 | 0.56 | 99 | 1009.7 |
| 20260903152506 | 11 | 150 | 0.0 | 0.0 | 0.00 | 0.56 | 0.56 | 99 | 1010.0 |
| 20260903152002 | 10 | 150 | 0.0 | 0.0 | 0.00 | 0.56 | 0.56 | 99 | 1009.9 |
| 20260903151456 | 10 | 151 | 0.0 | 0.0 | 0.00 | 0.56 | 0.56 | 99 | 1010.0 |
| 20260903150952 | 10 | 144 | 0.0 | 0.0 | 0.00 | 0.56 | 0.56 | 99 | 1009.9 |
| 20260903150451 | 10 | 115 | 0.0 | 0.0 | 0.00 | 0.56 | 0.56 | 99 | 1009.9 |
| 20260903145946 | 10 | 114 | 0.0 | 0.0 | 0.00 | 0.56 | 0.56 | 99 | 1009.9 |
| 20260903145441 | 10 | 130 | 0.0 | 0.0 | 0.00 | 0.56 | 0.56 | 99 | 1009.8 |
| 20260903144936 | 10 | 131 | 0.0 | 0.0 | 0.00 | 0.56 | 0.56 | 99 | 1009.5 |
| 20260903144435 | 10 | 179 | 0.0 | 0.0 | 0.00 | 0.56 | 0.56 | 99 | 1009.6 |
| 20260903143931 | 10 | 151 | 0.0 | 0.0 | 0.00 | 0.56 | 0.56 | 99 | 1009.7 |
| 20260903143428 | 10 | 144 | 0.0 | 0.0 | 0.00 | 0.56 | 0.56 | 99 | 1009.3 |
| 20260903142923 | 10 | 144 | 0.0 | 0.0 | 0.00 | 0.56 | 0.56 | 99 | 1009.6 |
| 20260903142419 | 10 | 145 | 0.0 | 0.0 | 0.00 | 0.56 | 0.56 | 99 | 1009.6 |
| 20260903141915 | 10 | 147 | 0.0 | 0.0 | 0.00 | 0.56 | 0.56 | 99 | 1009.5 |
| 20260903141410 | 10 | 149 | 0.0 | 0.0 | 0.00 | 0.56 | 0.56 | 99 | 1009.5 |
| 20260903140906 | 10 | 140 | 0.0 | 0.0 | 0.00 | 0.56 | 0.56 | 99 | 1009.5 |
| 20260903140400 | 9 | 147 | 0.0 | 0.0 | 0.00 | 0.56 | 0.56 | 99 | 1009.4 |
| 20260903135856 | 9 | 146 | 0.0 | 0.0 | 0.00 | 0.56 | 0.56 | 99 | 1009.4 |
| 20260903135346 | 9 | 111 | 0.0 | 0.0 | 0.00 | 0.56 | 0.56 | 99 | 1009.5 |
| 20260903134844 | 9 | 112 | 0.0 | 0.0 | 0.00 | 0.56 | 0.56 | 99 | 1009.4 |
| 20260903134340 | 9 | 112 | 0.0 | 0.0 | 0.00 | 0.56 | 0.56 | 99 | 1009.3 |
| 20260903133837 | 9 | 112 | 0.0 | 0.0 | 0.00 | 0.56 | 0.56 | 99 | 1009.1 |
| 20260903133334 | 9 | 112 | 0.0 | 0.0 | 0.00 | 0.56 | 0.56 | 99 | 1009.3 |
| 20260903132828 | 9 | 112 | 0.0 | 0.0 | 0.00 | 0.56 | 0.56 | 99 | 1009.4 |
| 20260903132324 | 9 | 112 | 0.0 | 0.0 | 0.00 | 0.56 | 0.56 | 99 | 1009.3 |
| 20260903131819 | 9 | 112 | 0.0 | 0.0 | 0.00 | 0.56 | 0.56 | 99 | 1009.1 |
| 20260903131318 | 9 | 112 | 0.0 | 0.0 | 0.00 | 0.56 | 0.56 | 99 | 1009.1 |
| 20260903130812 | 9 | 112 | 0.0 | 0.0 | 0.00 | 0.56 | 0.56 | 99 | 1009.0 |
| 20260903130313 | 9 | 112 | 0.0 | 0.0 | 0.00 | 0.56 | 0.56 | 99 | 1009.0 |
| 20260903125811 | 9 | 111 | 0.0 | 0.0 | 0.00 | 0.56 | 0.56 | 99 | 1008.8 |
| 20260903125307 | 9 | 111 | 0.0 | 0.0 | 0.00 | 0.56 | 0.56 | 99 | 1008.5 |
| 20260903124806 | 10 | 111 | 0.0 | 0.0 | 0.00 | 0.56 | 0.56 | 99 | 1008.7 |
| 20260903124301 | 10 | 111 | 0.0 | 0.0 | 0.00 | 0.56 | 0.56 | 99 | 1008.8 |
| 20260903123800 | 10 | 113 | 0.0 | 0.0 | 0.00 | 0.56 | 0.56 | 99 | 1008.7 |
| 20260903123259 | 10 | 122 | 0.0 | 0.0 | 0.00 | 0.56 | 0.56 | 99 | 1008.6 |
| 20260903122758 | 10 | 151 | 0.0 | 0.0 | 0.00 | 0.56 | 0.56 | 99 | 1008.6 |
| 20260903122253 | 10 | 151 | 0.0 | 0.0 | 0.00 | 0.56 | 0.56 | 99 | 1008.6 |
| 20260903121751 | 10 | 151 | 0.0 | 0.0 | 0.00 | 0.56 | 0.56 | 99 | 1008.5 |
| 20260903121247 | 10 | 152 | 0.0 | 0.0 | 0.00 | 0.56 | 0.56 | 99 | 1008.6 |
| 20260903120742 | 10 | 152 | 0.0 | 0.0 | 0.00 | 0.56 | 0.56 | 99 | 1008.6 |
| 20260903120236 | 10 | 152 | 0.0 | 0.0 | 0.00 | 0.56 | 0.56 | 99 | 1008.6 |
| 20260903115735 | 10 | 152 | 0.0 | 0.0 | 0.18 | 0.56 | 0.56 | 99 | 1008.6 |
| 20260903115230 | 10 | 152 | 0.0 | 0.0 | 0.18 | 0.56 | 0.56 | 99 | 1008.6 |
| 20260903114724 | 10 | 152 | 0.0 | 0.0 | 0.00 | 0.53 | 0.53 | 99 | 1008.7 |
| 20260903114220 | 10 | 152 | 0.0 | 0.0 | 0.13 | 0.53 | 0.53 | 99 | 1008.6 |
| 20260903113715 | 10 | 153 | 0.0 | 0.0 | 0.13 | 0.53 | 0.53 | 99 | 1009.0 |
| 20260903113211 | 10 | 153 | 0.0 | 0.0 | 0.18 | 0.51 | 0.51 | 99 | 1008.5 |
| 20260903112707 | 10 | 154 | 0.0 | 0.0 | 0.18 | 0.51 | 0.51 | 99 | 1008.6 |
| 20260903112203 | 10 | 150 | 0.0 | 0.0 | 0.13 | 0.48 | 0.48 | 99 | 1008.5 |
| 20260903111701 | 10 | 149 | 0.0 | 0.0 | 0.30 | 0.48 | 0.48 | 99 | 1008.5 |
| 20260903111156 | 10 | 142 | 0.0 | 0.0 | 0.30 | 0.46 | 0.46 | 99 | 1008.5 |
| 20260903110653 | 10 | 141 | 0.0 | 0.0 | 0.43 | 0.43 | 0.43 | 99 | 1008.5 |
| 20260903110148 | 10 | 152 | 0.0 | 0.0 | 0.30 | 0.41 | 0.41 | 99 | 1008.4 |
| 20260903105642 | 10 | 153 | 0.0 | 0.0 | 0.18 | 0.36 | 0.36 | 99 | 1008.4 |
| 20260903105137 | 10 | 149 | 1.6 | 1.6 | 0.18 | 0.36 | 0.36 | 99 | 1008.6 |
| 20260903104637 | 10 | 182 | 3.2 | 4.8 | 0.13 | 0.33 | 0.33 | 99 | 1008.2 |
| 20260903104133 | 10 | 156 | 1.6 | 1.6 | 0.13 | 0.33 | 0.33 | 99 | 1008.3 |
| 20260903103628 | 10 | 147 | 1.6 | 1.6 | 0.18 | 0.30 | 0.30 | 99 | 1008.0 |
| 20260903103124 | 10 | 155 | 1.6 | 1.6 | 0.18 | 0.30 | 0.30 | 99 | 1008.0 |
| 20260903102620 | 10 | 150 | 1.6 | 3.2 | 0.00 | 0.28 | 0.28 | 99 | 1008.0 |
| 20260903102118 | 10 | 161 | 3.2 | 3.2 | 0.18 | 0.28 | 0.28 | 99 | 1008.3 |
| 20260903101613 | 10 | 147 | 0.0 | 0.0 | 0.18 | 0.28 | 0.28 | 99 | 1008.1 |
| 20260903101108 | 10 | 151 | 1.6 | 1.6 | 0.00 | 0.25 | 0.25 | 99 | 1008.1 |
| 20260903100603 | 10 | 156 | 0.0 | 1.6 | 0.00 | 0.25 | 0.25 | 99 | 1007.8 |
| 20260903095600 | 10 | 161 | 0.0 | 0.0 | 0.13 | 0.25 | 0.25 | 99 | 1007.9 |
| 20260903095055 | 10 | 149 | 0.0 | 0.0 | 0.13 | 0.25 | 0.25 | 99 | 1007.9 |
| 20260903094555 | 10 | 150 | 0.0 | 0.0 | 0.00 | 0.23 | 0.23 | 99 | 1008.2 |
| 20260903094050 | 10 | 154 | 0.0 | 0.0 | 0.18 | 0.23 | 0.23 | 99 | 1007.9 |
| 20260903093550 | 10 | 152 | 0.0 | 0.0 | 0.48 | 0.23 | 0.23 | 99 | 1007.8 |
| 20260903093046 | 11 | 152 | 1.6 | 1.6 | 0.30 | 0.20 | 0.20 | 99 | 1007.7 |
| 20260903092545 | 11 | 148 | 0.0 | 0.0 | 0.30 | 0.18 | 0.18 | 99 | 1007.9 |
| 20260903092040 | 11 | 145 | 1.6 | 1.6 | 0.30 | 0.15 | 0.15 | 99 | 1007.7 |
| 20260903091538 | 11 | 138 | 0.0 | 0.0 | 0.18 | 0.13 | 0.13 | 99 | 1007.7 |
| 20260903091033 | 11 | 152 | 0.0 | 0.0 | 0.00 | 0.10 | 0.10 | 99 | 1007.8 |
| 20260903090529 | 11 | 154 | 0.0 | 0.0 | 0.00 | 0.10 | 0.10 | 99 | 1007.8 |
| 20260903090028 | 11 | 120 | 0.0 | 0.0 | 0.13 | 0.10 | 0.10 | 99 | 1007.5 |
| 20260903085526 | 11 | 123 | 0.0 | 0.0 | 0.13 | 0.10 | 0.10 | 99 | 1007.8 |
| 20260903085022 | 11 | 123 | 0.0 | 0.0 | 0.18 | 0.08 | 0.08 | 99 | 1007.5 |
| 20260903084520 | 11 | 124 | 0.0 | 0.0 | 0.18 | 0.08 | 0.08 | 99 | 1007.8 |
| 20260903084015 | 11 | 124 | 0.0 | 0.0 | 0.00 | 0.05 | 0.05 | 99 | 1007.5 |
| 20260903083511 | 11 | 117 | 0.0 | 0.0 | 0.00 | 0.05 | 0.05 | 99 | 1007.4 |
| 20260903083010 | 11 | 118 | 0.0 | 0.0 | 0.00 | 0.05 | 0.05 | 99 | 1007.7 |
| 20260903082505 | 11 | 118 | 0.0 | 0.0 | 0.00 | 0.05 | 0.05 | 99 | 1007.8 |
| 20260903082000 | 11 | 117 | 0.0 | 0.0 | 0.00 | 0.05 | 0.05 | 99 | 1007.4 |
| 20260903081455 | 11 | 133 | 0.0 | 0.0 | 0.00 | 0.05 | 0.05 | 99 | 1007.7 |
| 20260903080952 | 11 | 140 | 0.0 | 0.0 | 0.00 | 0.05 | 0.05 | 98 | 1007.5 |
| 20260903080447 | 11 | 150 | 0.0 | 0.0 | 0.00 | 0.05 | 0.05 | 98 | 1007.5 |
| 20260903075943 | 11 | 128 | 0.0 | 0.0 | 0.00 | 0.05 | 0.05 | 98 | 1007.4 |
| 20260903075438 | 11 | 128 | 0.0 | 0.0 | 0.00 | 0.05 | 0.05 | 98 | 1007.4 |
| 20260903074933 | 11 | 128 | 0.0 | 0.0 | 0.13 | 0.05 | 0.05 | 98 | 1007.8 |
| 20260903074432 | 11 | 128 | 0.0 | 0.0 | 0.13 | 0.05 | 0.05 | 97 | 1007.4 |
| 20260903073928 | 11 | 128 | 0.0 | 0.0 | 0.00 | 0.03 | 0.03 | 97 | 1007.8 |
| 20260903073423 | 11 | 128 | 0.0 | 0.0 | 0.00 | 0.03 | 0.03 | 97 | 1007.8 |
| 20260903072919 | 11 | 118 | 0.0 | 0.0 | 0.18 | 0.03 | 0.03 | 97 | 1007.7 |
| 20260903072414 | 11 | 128 | 0.0 | 0.0 | 0.18 | 0.03 | 0.03 | 97 | 1007.5 |
| 20260903071911 | 11 | 150 | 0.0 | 0.0 | 0.00 | 0.00 | 0.00 | 97 | 1007.9 |
| 20260903071407 | 11 | 154 | 0.0 | 0.0 | 0.00 | 0.00 | 0.00 | 97 | 1007.7 |
| 20260903070903 | 11 | 126 | 0.0 | 0.0 | 0.00 | 0.00 | 0.00 | 97 | 1007.5 |
| 20260903070357 | 11 | 107 | 0.0 | 0.0 | 0.13 | 0.00 | 0.00 | 97 | 1007.7 |
| 20260903065851 | 11 | 137 | 0.0 | 0.0 | 0.13 | 0.38 | 0.38 | 97 | 1007.7 |
| 20260903065351 | 11 | 116 | 0.0 | 0.0 | 0.00 | 0.36 | 0.36 | 97 | 1007.9 |
| 20260903064845 | 11 | 126 | 0.0 | 0.0 | 0.18 | 0.36 | 0.36 | 96 | 1007.8 |
| 20260903064340 | 11 | 151 | 0.0 | 0.0 | 0.18 | 0.36 | 0.36 | 96 | 1008.1 |
| 20260903063836 | 11 | 151 | 0.0 | 0.0 | 0.18 | 0.33 | 0.33 | 96 | 1007.9 |
| 20260903063331 | 11 | 151 | 0.0 | 0.0 | 0.18 | 0.33 | 0.33 | 96 | 1008.0 |
| 20260903062827 | 11 | 151 | 0.0 | 0.0 | 0.13 | 0.30 | 0.30 | 96 | 1008.1 |
| 20260903062326 | 11 | 152 | 0.0 | 0.0 | 0.13 | 0.30 | 0.30 | 96 | 1008.0 |
| 20260903061823 | 11 | 147 | 0.0 | 0.0 | 0.30 | 0.30 | 0.30 | 96 | 1008.0 |
| 20260903061321 | 11 | 146 | 0.0 | 0.0 | 0.18 | 0.28 | 0.28 | 95 | 1008.1 |
| 20260903060818 | 11 | 173 | 0.0 | 0.0 | 0.13 | 0.25 | 0.25 | 95 | 1008.4 |
| 20260903060311 | 11 | 159 | 0.0 | 0.0 | 0.30 | 0.25 | 0.25 | 95 | 1008.2 |
| 20260903055809 | 11 | 147 | 0.0 | 0.0 | 0.30 | 0.23 | 0.23 | 94 | 1008.1 |
| 20260903055308 | 11 | 143 | 0.0 | 0.0 | 0.13 | 0.20 | 0.20 | 94 | 1008.2 |
| 20260903054802 | 11 | 134 | 0.0 | 0.0 | 0.18 | 0.18 | 0.18 | 94 | 1008.3 |
| 20260903054257 | 11 | 145 | 0.0 | 0.0 | 0.18 | 0.18 | 0.18 | 94 | 1008.5 |
| 20260903053754 | 11 | 122 | 0.0 | 0.0 | 0.00 | 0.15 | 0.15 | 94 | 1008.2 |
| 20260903053254 | 11 | 121 | 0.0 | 0.0 | 0.13 | 0.15 | 0.15 | 94 | 1008.3 |
| 20260903052744 | 11 | 124 | 0.0 | 0.0 | 0.13 | 0.15 | 0.15 | 94 | 1008.2 |
| 20260903052239 | 11 | 124 | 0.0 | 0.0 | 0.13 | 0.15 | 0.15 | 94 | 1008.4 |
| 20260903051734 | 11 | 125 | 0.0 | 0.0 | 0.00 | 0.13 | 0.13 | 94 | 1008.4 |
| 20260903051230 | 12 | 125 | 0.0 | 0.0 | 0.00 | 0.13 | 0.13 | 93 | 1008.3 |
| 20260903050726 | 12 | 124 | 0.0 | 0.0 | 0.00 | 0.13 | 0.13 | 93 | 1008.3 |
| 20260903050224 | 11 | 124 | 0.0 | 0.0 | 0.18 | 0.13 | 0.13 | 93 | 1008.1 |
| 20260903045720 | 11 | 124 | 0.0 | 0.0 | 0.18 | 0.13 | 0.13 | 93 | 1008.3 |
| 20260903045216 | 12 | 124 | 0.0 | 0.0 | 0.00 | 0.10 | 0.10 | 93 | 1008.3 |
| 20260903044712 | 12 | 140 | 0.0 | 0.0 | 0.00 | 0.10 | 0.10 | 93 | 1008.3 |
| 20260903044207 | 12 | 139 | 0.0 | 0.0 | 0.00 | 0.10 | 0.10 | 92 | 1008.4 |
| 20260903043704 | 12 | 139 | 0.0 | 0.0 | 0.00 | 0.10 | 0.10 | 92 | 1008.1 |
| 20260903043203 | 12 | 150 | 0.0 | 0.0 | 0.00 | 0.10 | 0.10 | 92 | 1008.3 |
| 20260903042702 | 12 | 147 | 0.0 | 0.0 | 0.00 | 0.10 | 0.10 | 91 | 1008.2 |
| 20260903042157 | 12 | 148 | 1.6 | 1.6 | 0.00 | 0.10 | 0.10 | 90 | 1008.2 |
| 20260903041654 | 12 | 160 | 1.6 | 1.6 | 0.13 | 0.10 | 0.10 | 87 | 1008.3 |
| 20260903041149 | 12 | 157 | 3.2 | 3.2 | 0.13 | 0.10 | 0.10 | 87 | 1007.9 |
| 20260903040649 | 12 | 146 | 0.0 | 0.0 | 0.00 | 0.08 | 0.08 | 85 | 1008.0 |
| 20260903040144 | 12 | 159 | 0.0 | 0.0 | 0.00 | 0.08 | 0.08 | 85 | 1008.1 |
| 20260903035639 | 12 | 142 | 0.0 | 0.0 | 0.00 | 0.08 | 0.08 | 83 | 1008.0 |
| 20260903035130 | 12 | 174 | 3.2 | 3.2 | 0.00 | 0.08 | 0.08 | 83 | 1007.9 |
| 20260903034629 | 12 | 167 | 3.2 | 3.2 | 0.00 | 0.08 | 0.08 | 83 | 1007.9 |
| 20260903034119 | 13 | 138 | 0.0 | 1.6 | 0.00 | 0.08 | 0.08 | 80 | 1007.9 |
| 20260903033615 | 13 | 156 | 0.0 | 0.0 | 0.00 | 0.08 | 0.08 | 78 | 1007.9 |
| 20260903033109 | 13 | 213 | 6.4 | 9.7 | 0.18 | 0.08 | 0.08 | 74 | 1007.9 |
| 20260903032604 | 13 | 200 | 3.2 | 3.2 | 0.18 | 0.08 | 0.08 | 76 | 1008.0 |
| 20260903032059 | 13 | 168 | 4.8 | 6.4 | 0.00 | 0.05 | 0.05 | 74 | 1007.9 |
| 20260903031554 | 13 | 151 | 6.4 | 9.7 | 0.00 | 0.05 | 0.05 | 76 | 1007.9 |
| 20260903031049 | 13 | 146 | 1.6 | 3.2 | 0.00 | 0.05 | 0.05 | 85 | 1008.0 |
| 20260903030544 | 13 | 138 | 0.0 | 0.0 | 0.00 | 0.05 | 0.05 | 87 | 1007.8 |
| 20260903030041 | 13 | 148 | 0.0 | 0.0 | 0.00 | 0.05 | 0.05 | 88 | 1007.4 |
| 20260903025536 | 13 | 155 | 0.0 | 1.6 | 0.00 | 0.05 | 0.05 | 87 | 1007.8 |
| 20260903025032 | 13 | 129 | 0.0 | 0.0 | 0.00 | 0.05 | 0.05 | 87 | 1007.9 |
| 20260903024531 | 13 | 144 | 0.0 | 1.6 | 0.00 | 0.05 | 0.05 | 88 | 1007.7 |
| 20260903024026 | 13 | 139 | 1.6 | 1.6 | 0.00 | 0.05 | 0.05 | 87 | 1007.7 |
| 20260903023521 | 13 | 134 | 0.0 | 0.0 | 0.00 | 0.05 | 0.05 | 88 | 1007.8 |
| 20260903023017 | 13 | 143 | 0.0 | 0.0 | 0.00 | 0.05 | 0.05 | 88 | 1007.8 |
| 20260903022516 | 13 | 120 | 0.0 | 0.0 | 0.00 | 0.05 | 0.05 | 87 | 1007.4 |
| 20260903022014 | 13 | 123 | 0.0 | 0.0 | 0.00 | 0.05 | 0.05 | 86 | 1007.2 |
| 20260903021509 | 13 | 127 | 1.6 | 1.6 | 0.00 | 0.05 | 0.05 | 85 | 1007.2 |
| 20260903021004 | 13 | 77 | 1.6 | 3.2 | 0.18 | 0.05 | 0.05 | 82 | 1007.5 |
| 20260903020459 | 14 | 170 | 1.6 | 1.6 | 0.30 | 0.05 | 0.05 | 82 | 1007.5 |
| 20260903015954 | 15 | 87 | 1.6 | 3.2 | 0.13 | 0.03 | 0.03 | 81 | 1007.4 |
| 20260903015450 | 15 | 172 | 3.2 | 4.8 | 0.00 | 0.00 | 0.00 | 76 | 1007.3 |
| 20260903014944 | 15 | 154 | 1.6 | 1.6 | 0.00 | 0.00 | 0.00 | 72 | 1007.2 |
| 20260903014443 | 16 | 130 | 0.0 | 0.0 | 0.00 | 0.00 | 0.00 | 69 | 1007.1 |
| 20260903013938 | 16 | 146 | 0.0 | 0.0 | 0.00 | 0.00 | 0.00 | 66 | 1007.2 |
| 20260903013433 | 16 | 148 | 0.0 | 0.0 | 0.00 | 0.00 | 0.00 | 61 | 1007.2 |
| 20260903012932 | 16 | 210 | 0.0 | 1.6 | 0.00 | 0.00 | 0.00 | 59 | 1007.0 |
| 20260903012432 | 17 | 167 | 1.6 | 3.2 | 0.00 | 0.00 | 0.00 | 57 | 1006.9 |
| 20260903011930 | 17 | 163 | 1.6 | 3.2 | 0.00 | 0.00 | 0.00 | 53 | 1006.9 |
| 20260903011426 | 18 | 252 | 6.4 | 9.7 | 0.00 | 0.00 | 0.00 | 51 | 1006.8 |
| 20260903010920 | 18 | 265 | 9.7 | 11.3 | 0.00 | 0.00 | 0.00 | 48 | 1006.4 |
| 20260903010416 | 18 | 205 | 4.8 | 4.8 | 0.00 | 0.00 | 0.00 | 48 | 1006.7 |
| 20260903005913 | 18 | 263 | 8.0 | 9.7 | 0.00 | 0.00 | 0.00 | 47 | 1006.4 |
| 20260903005409 | 18 | 280 | 9.7 | 11.3 | 0.00 | 0.00 | 0.00 | 47 | 1006.1 |
| 20260903004906 | 18 | 264 | 11.3 | 14.5 | 0.00 | 0.00 | 0.00 | 47 | 1006.2 |
| 20260903004401 | 18 | 249 | 8.0 | 11.3 | 0.00 | 0.00 | 0.00 | 46 | 1006.2 |
| 20260903003856 | 19 | 275 | 6.4 | 9.7 | 0.00 | 0.00 | 0.00 | 45 | 1006.4 |
| 20260903003350 | 19 | 306 | 6.4 | 6.4 | 0.00 | 0.00 | 0.00 | 44 | 1005.9 |
| 20260903002850 | 19 | 258 | 9.7 | 11.3 | 0.00 | 0.00 | 0.00 | 43 | 1006.0 |
| 20260903002345 | 20 | 272 | 9.7 | 11.3 | 0.00 | 0.00 | 0.00 | 43 | 1005.9 |
| 20260903001840 | 20 | 240 | 9.7 | 12.9 | 0.00 | 0.00 | 0.00 | 42 | 1006.0 |
| 20260903001335 | 20 | 282 | 6.4 | 9.7 | 0.00 | 0.00 | 0.00 | 41 | 1005.7 |
| 20260903000835 | 20 | 180 | 6.4 | 6.4 | 0.00 | 0.00 | 0.00 | 41 | 1005.5 |
| 20260903000332 | 20 | 287 | 3.2 | 3.2 | 0.00 | 0.00 | 0.00 | 42 | 1005.7 |
| 20260902235828 | 20 | 228 | 6.4 | 9.7 | 0.00 | 0.00 | 0.00 | 42 | 1005.7 |
| 20260902235323 | 20 | 205 | 6.4 | 6.4 | 0.00 | 0.00 | 0.00 | 42 | 1005.6 |
| 20260902234818 | 20 | 205 | 3.2 | 4.8 | 0.00 | 0.00 | 0.00 | 42 | 1005.2 |
| 20260902234317 | 20 | 192 | 3.2 | 4.8 | 0.00 | 0.00 | 0.00 | 42 | 1005.2 |
| 20260902233816 | 20 | 224 | 8.0 | 9.7 | 0.00 | 0.00 | 0.00 | 40 | 1005.3 |
| 20260902233311 | 20 | 288 | 4.8 | 6.4 | 0.00 | 0.00 | 0.00 | 41 | 1005.2 |
| 20260902232809 | 20 | 251 | 14.5 | 16.1 | 0.00 | 0.00 | 0.00 | 39 | 1005.2 |
| 20260902232310 | 20 | 277 | 11.3 | 14.5 | 0.00 | 0.00 | 0.00 | 41 | 1005.2 |
| 20260902231809 | 20 | 279 | 14.5 | 17.7 | 0.00 | 0.00 | 0.00 | 41 | 1005.5 |
| 20260902231304 | 20 | 262 | 14.5 | 16.1 | 0.00 | 0.00 | 0.00 | 40 | 1005.6 |
| 20260902230759 | 21 | 238 | 8.0 | 9.7 | 0.00 | 0.00 | 0.00 | 40 | 1005.3 |
| 20260902230258 | 21 | 236 | 8.0 | 11.3 | 0.00 | 0.00 | 0.00 | 39 | 1005.8 |
| 20260902225753 | 21 | 271 | 8.0 | 11.3 | 0.00 | 0.00 | 0.00 | 39 | 1005.1 |
| 20260902225248 | 21 | 273 | 3.2 | 4.8 | 0.00 | 0.00 | 0.00 | 38 | 1005.4 |
| 20260902224746 | 21 | 319 | 9.7 | 12.9 | 0.00 | 0.00 | 0.00 | 39 | 1005.2 |
| 20260902224242 | 21 | 212 | 11.3 | 14.5 | 0.00 | 0.00 | 0.00 | 39 | 1004.9 |
| 20260902223738 | 21 | 290 | 8.0 | 9.7 | 0.00 | 0.00 | 0.00 | 40 | 1004.9 |
| 20260902223237 | 21 | 236 | 12.9 | 16.1 | 0.00 | 0.00 | 0.00 | 37 | 1004.7 |
| 20260902222736 | 21 | 163 | 3.2 | 4.8 | 0.00 | 0.00 | 0.00 | 39 | 1004.8 |
| 20260902222231 | 21 | 152 | 0.0 | 0.0 | 0.00 | 0.00 | 0.00 | 39 | 1004.7 |
| 20260902221725 | 21 | 176 | 3.2 | 3.2 | 0.00 | 0.00 | 0.00 | 38 | 1004.6 |
| 20260902221219 | 21 | 152 | 1.6 | 3.2 | 0.00 | 0.00 | 0.00 | 38 | 1004.6 |
| 20260902220714 | 21 | 141 | 3.2 | 4.8 | 0.00 | 0.00 | 0.00 | 38 | 1004.7 |
| 20260902220214 | 21 | 174 | 8.0 | 12.9 | 0.00 | 0.00 | 0.00 | 38 | 1004.8 |
| 20260902215710 | 22 | 165 | 1.6 | 1.6 | 0.00 | 0.00 | 0.00 | 37 | 1004.8 |
| 20260902215205 | 23 | 139 | 0.0 | 1.6 | 0.00 | 0.00 | 0.00 | 37 | 1004.7 |
| 20260902214701 | 22 | 175 | 1.6 | 1.6 | 0.00 | 0.00 | 0.00 | 37 | 1005.2 |
| 20260902214159 | 22 | 175 | 4.8 | 4.8 | 0.00 | 0.00 | 0.00 | 39 | 1005.4 |
| 20260902213655 | 21 | 204 | 6.4 | 9.7 | 0.00 | 0.00 | 0.00 | 39 | 1005.3 |
| 20260902213149 | 21 | 147 | 4.8 | 4.8 | 0.00 | 0.00 | 0.00 | 39 | 1005.4 |
| 20260902212644 | 21 | 138 | 1.6 | 3.2 | 0.00 | 0.00 | 0.00 | 40 | 1005.6 |
| 20260902212141 | 21 | 173 | 1.6 | 1.6 | 0.00 | 0.00 | 0.00 | 39 | 1005.5 |
| 20260902211636 | 21 | 222 | 6.4 | 9.7 | 0.00 | 0.00 | 0.00 | 39 | 1005.4 |
| 20260902211131 | 21 | 148 | 1.6 | 3.2 | 0.00 | 0.00 | 0.00 | 39 | 1005.3 |
| 20260902210631 | 21 | 173 | 3.2 | 3.2 | 0.00 | 0.00 | 0.00 | 40 | 1005.5 |
| 20260902210126 | 21 | 162 | 1.6 | 1.6 | 0.00 | 0.00 | 0.00 | 39 | 1005.4 |
| 20260902205624 | 20 | 179 | 3.2 | 4.8 | 0.00 | 0.00 | 0.00 | 41 | 1005.3 |
| 20260902205120 | 20 | 168 | 1.6 | 1.6 | 0.00 | 0.00 | 0.00 | 42 | 1005.4 |
| 20260902204615 | 20 | 144 | 1.6 | 1.6 | 0.00 | 0.00 | 0.00 | 43 | 1005.6 |
| 20260902204109 | 20 | 152 | 0.0 | 1.6 | 0.00 | 0.00 | 0.00 | 42 | 1005.6 |
| 20260902203605 | 20 | 141 | 0.0 | 0.0 | 0.00 | 0.00 | 0.00 | 42 | 1005.4 |
| 20260902203104 | 20 | 184 | 1.6 | 3.2 | 0.00 | 0.00 | 0.00 | 42 | 1005.4 |
| 20260902202600 | 20 | 166 | 3.2 | 3.2 | 0.00 | 0.00 | 0.00 | 42 | 1005.6 |
| 20260902202056 | 21 | 217 | 1.6 | 3.2 | 0.00 | 0.00 | 0.00 | 41 | 1005.6 |
| 20260902201551 | 21 | 183 | 6.4 | 6.4 | 0.00 | 0.00 | 0.00 | 41 | 1005.7 |
| 20260902201045 | 21 | 150 | 9.7 | 12.9 | 0.00 | 0.00 | 0.00 | 40 | 1005.7 |
| 20260902200540 | 22 | 142 | 0.0 | 1.6 | 0.00 | 0.00 | 0.00 | 39 | 1005.7 |
| 20260902200037 | 21 | 181 | 6.4 | 6.4 | 0.00 | 0.00 | 0.00 | 39 | 1005.5 |
| 20260902195532 | 22 | 144 | 3.2 | 3.2 | 0.00 | 0.00 | 0.00 | 40 | 1005.7 |
| 20260902195030 | 22 | 139 | 8.0 | 14.5 | 0.00 | 0.00 | 0.00 | 39 | 1005.9 |
| 20260902194524 | 21 | 147 | 1.6 | 3.2 | 0.00 | 0.00 | 0.00 | 40 | 1005.9 |
| 20260902194020 | 22 | 137 | 6.4 | 6.4 | 0.00 | 0.00 | 0.00 | 39 | 1006.2 |
| 20260902193515 | 21 | 129 | 8.0 | 11.3 | 0.00 | 0.00 | 0.00 | 40 | 1006.0 |
| 20260902193015 | 23 | 180 | 19.3 | 25.7 | 0.00 | 0.00 | 0.00 | 37 | 1006.2 |
| 20260902192514 | 22 | 129 | 6.4 | 6.4 | 0.00 | 0.00 | 0.00 | 38 | 1005.8 |
| 20260902192013 | 22 | 141 | 3.2 | 3.2 | 0.00 | 0.00 | 0.00 | 39 | 1006.1 |
| 20260902191509 | 22 | 130 | 1.6 | 1.6 | 0.00 | 0.00 | 0.00 | 40 | 1006.1 |
| 20260902191003 | 22 | 190 | 8.0 | 11.3 | 0.00 | 0.00 | 0.00 | 40 | 1006.2 |
| 20260902190458 | 21 | 185 | 8.0 | 11.3 | 0.00 | 0.00 | 0.00 | 41 | 1006.4 |
| 20260902185954 | 20 | 133 | 3.2 | 3.2 | 0.00 | 0.00 | 0.00 | 44 | 1006.2 |
| 20260902185449 | 21 | 177 | 8.0 | 11.3 | 0.00 | 0.00 | 0.00 | 43 | 1006.1 |
| 20260902184944 | 21 | 139 | 4.8 | 4.8 | 0.00 | 0.00 | 0.00 | 42 | 1006.4 |
| 20260902184439 | 22 | 183 | 4.8 | 4.8 | 0.00 | 0.00 | 0.00 | 43 | 1006.6 |
| 20260902183935 | 21 | 148 | 1.6 | 3.2 | 0.00 | 0.00 | 0.00 | 43 | 1006.7 |
| 20260902183431 | 21 | 137 | 4.8 | 4.8 | 0.00 | 0.00 | 0.00 | 43 | 1006.5 |
| 20260902182927 | 21 | 177 | 6.4 | 9.7 | 0.00 | 0.00 | 0.00 | 44 | 1006.5 |
| 20260902182423 | 21 | 55 | 1.6 | 4.8 | 0.00 | 0.00 | 0.00 | 43 | 1006.5 |
| 20260902181919 | 21 | 146 | 3.2 | 4.8 | 0.00 | 0.00 | 0.00 | 43 | 1006.8 |
| 20260902181414 | 21 | 145 | 3.2 | 6.4 | 0.00 | 0.00 | 0.00 | 44 | 1006.8 |
| 20260902180909 | 20 | 135 | 0.0 | 0.0 | 0.00 | 0.00 | 0.00 | 43 | 1006.9 |